Location: Augirein
(42.9320°N, 0.9181°E)
Time: 19:02:25
(UTC+00:00)

Cosmos 1437 - Pass Details

Date: 20 June 2021
Orbit: 334 x 335 km, 81.2° (Epoch: 23 July)

Event Time Altitude Azimuth Distance (km) Brightness Sun altitude
Rises 01:43:33 0° 350° (N) 2,126 7.2 -19.3°
Reaches altitude 10° 01:45:30 10° 352° (N) 1,282 6.0 -19.2°
Enters shadow 01:48:00 69° 11° (NNE) 363 2.5 -19.0°
